Petersburg, AK

1:41 PM AKST on February 24, 2017 (GMT -0900)
Johnson Petersburg

Weather History for PAPG - August, 2013

Change the Weather History Date:

Monday, August 12, 2013

  Actual Average Record
Temperature  
Mean Temperature 60 °F -  
Max Temperature 69 °F 60 °F 74 °F (1989)
Min Temperature 51 °F 48 °F 44 °F (2007)
Degree Days  
Heating Degree Days 5    
Growing Degree Days 10 (Base 50)    
Moisture  
Dew Point 51 °F    
Average Humidity 67    
Maximum Humidity 94    
Minimum Humidity 53    
Precipitation  
Precipitation 0.00 in - - ()
Sea Level Pressure  
Sea Level Pressure 29.99 in    
Wind  
Wind Speed 3 mph (NE)    
Max Wind Speed 7 mph    
Max Gust Speed -    
Visibility 10 miles    
Events      
Averages and records for this station are not official NWS values.
T = Trace of Precipitation, MM = Missing Value Source: NWS Daily Summary

Daily Weather History Graph

Daily Weather History Graph

Search for Another Location

Airport or City:

Trip Planner

Search our weather history database for the weather conditions in past years. The results will help you decide how hot, cold, wet, or windy it might be!

Date:

Astronomy

Aug. 12, 2013 Rise Set
Actual Time 5:14 AM AKDT 8:37 PM AKDT
Civil Twilight 4:28 AM AKDT 9:22 PM AKDT
Nautical Twilight 3:25 AM AKDT 10:25 PM AKDT
Astronomical Twilight 1:30 AM AKDT 12:11 AM AKDT
Moon 12:37 PM AKDT (8/12) 10:07 PM AKDT (8/12)
Length of Visible Light 16h 54m
Length of Day
15h 23m
Waxing Crescent, 33% of the Moon is Illuminated
Aug 12
Waxing Crescent
Aug 14
First Quarter
Aug 20
Full
Aug 28
Last Quarter
Sep 5
New

Hourly Weather History & Observations

Time (AKDT) Temp. Dew Point Humidity Pressure Visibility Wind Dir Wind Speed Gust Speed Precip Events Conditions
1:36 AM 55.4 °F 50.0 °F 82% 29.98 in 10.0 mi Calm Calm - N/A   Clear
2:56 AM 51.8 °F 48.2 °F 88% 29.99 in 10.0 mi Calm Calm - N/A   Clear
4:56 AM 51.8 °F 46.4 °F 82% 29.99 in 10.0 mi Calm Calm - N/A   Clear
5:56 AM 51.8 °F 48.2 °F 88% 30.00 in 10.0 mi Calm Calm - N/A   Clear
6:36 AM 51.8 °F 48.2 °F 88% 30.00 in 10.0 mi Calm Calm - N/A   Partly Cloudy
6:55 AM 53.6 °F 51.8 °F 94% 30.00 in 10.0 mi Calm Calm - N/A   Partly Cloudy
7:55 AM 57.2 °F 50.0 °F 77% 30.00 in 10.0 mi NNE 3.5 mph - N/A   Partly Cloudy
8:55 AM 59.0 °F 51.8 °F 77% 30.01 in 10.0 mi NE 3.5 mph - N/A   Partly Cloudy
9:55 AM 64.4 °F 51.8 °F 64% 30.01 in 10.0 mi NNE 4.6 mph - N/A   Scattered Clouds
10:16 AM 64.4 °F 51.8 °F 64% 30.00 in 10.0 mi ENE 4.6 mph - N/A   Scattered Clouds
10:55 AM 62.6 °F 51.8 °F 68% 30.00 in 10.0 mi NNE 3.5 mph - N/A   Scattered Clouds
11:16 AM 64.4 °F 50.0 °F 59% 30.00 in 10.0 mi East 4.6 mph - N/A   Scattered Clouds
11:55 AM 66.2 °F 51.8 °F 60% 30.00 in 10.0 mi NNE 5.8 mph - N/A   Partly Cloudy
12:16 PM 64.4 °F 51.8 °F 64% 30.00 in 10.0 mi NE 4.6 mph - N/A   Partly Cloudy
12:55 PM 68.0 °F 51.8 °F 56% 30.00 in 10.0 mi NE 6.9 mph - N/A   Partly Cloudy
1:55 PM 69.8 °F 53.6 °F 56% 29.99 in 10.0 mi NE 5.8 mph - N/A   Clear
2:16 PM 69.8 °F 53.6 °F 56% 29.99 in 10.0 mi ENE 5.8 mph - N/A   Clear
3:52 PM 69.8 °F 51.8 °F 53% 29.97 in 10.0 mi NE 5.8 mph - N/A   Clear
4:16 PM 69.8 °F 51.8 °F 53% 29.97 in 10.0 mi NE 6.9 mph - N/A   Clear
4:55 PM 69.8 °F 51.8 °F 53% 29.96 in 10.0 mi NNE 5.8 mph - N/A   Clear
5:52 PM 69.8 °F 51.8 °F 53% 29.96 in 10.0 mi NE 5.8 mph - N/A   Clear
6:55 PM 69.8 °F 51.8 °F 53% 29.96 in 10.0 mi NNE 3.5 mph - N/A   Clear
6:56 PM 69.8 °F 51.8 °F 53% 29.96 in 10.0 mi East 4.6 mph - N/A   Clear
7:16 PM 68.0 °F 51.8 °F 56% 29.96 in 10.0 mi ENE 3.5 mph - N/A   Clear
8:52 PM 64.4 °F 53.6 °F 68% 29.97 in 10.0 mi East 3.5 mph - N/A   Clear
9:52 PM 60.8 °F 53.6 °F 77% 29.98 in 10.0 mi NNE 4.6 mph - N/A   Clear